[[{"header":{"parameterUnit":"m.s-1","parameterCategory":1,"la1":30.2991,"la2":30.254,"lo1":-89.0895,"lo2":-89.0444,"dy":0.0017,"dx":0.0017,"nx":28,"ny":28,"refTime":"2023-08-21T03:00:00:Z","depth":0,"parameterNumber":2,"parameterNumberName":"U-component_of_WINDS"},"data":[0,0,0,0,0,0,0,0,0,0,0,0,0,0,0,0,0,0,0,0,0,0,0,0,0,0,0,0,0,0,0,0,0,0,0,0,0,0,0,0,0,0,0,0,0,0,0,0,0,0,0,0,0,0,0,0,0,0,-3.0962,-3.0961,0,-3.0917,-3.0916,-3.0916,-3.0809,-3.0807,-3.0805,-3.0803,-3.076,-3.0761,-3.0762,0,0,0,0,0,0,0,0,0,0,0,0,0,-3.0962,-3.0963,-3.0962,-3.0961,-3.096,-3.0917,-3.0916,-3.0915,-3.081,-3.0807,-3.0804,-3.0802,-3.076,-3.0761,-3.0762,0,0,0,0,0,0,0,0,0,0,0,0,0,-3.0944,-3.0963,-3.0962,-3.0902,-3.0897,-3.0917,-3.0916,-3.0915,-3.081,-3.0807,-3.0804,-3.08,-3.0759,-3.0761,-3.0762,-3.0837,0,0,-3.0766,-3.0767,0,0,0,0,0,0,0,0,-3.0946,-3.0944,-3.0912,-3.0906,-3.09,-3.0865,-3.09,-3.0889,-3.0811,-3.0843,-3.0803,-3.0799,-3.0798,-3.0796,-3.0795,-3.0835,-3.0833,-3.0766,-3.0767,-3.0768,-3.0768,0,0,0,0,0,0,0,-3.0947,-3.0946,-3.0944,-3.0911,-3.0904,-3.088,-3.0874,-3.0898,-3.084,-3.084,-3.0832,-3.0828,-3.0794,-3.0794,-3.0793,-3.0833,-3.0766,-3.0768,-3.0768,-3.0769,-3.0937,-3.094,0,0,0,0,0,0,-3.0956,-3.0948,-3.0945,-3.0942,-3.0915,-3.0883,-3.0876,-3.088,-3.0839,-3.083,-3.0831,-3.0823,-3.0793,-3.0792,-3.0791,-3.0878,-3.0768,-3.0769,-3.077,-3.0933,-3.0938,-3.0942,0,0,0,0,0,0,-3.0957,-3.0957,-3.0947,-3.0943,-3.094,-3.0886,-3.0892,-3.0881,-3.088,-3.0832,-3.0822,-3.0841,-3.079,-3.0789,-3.0827,-3.0875,-3.077,-3.0771,-3.0929,-3.0935,-3.094,-3.1052,0,0,0,0,0,0,-3.0957,-3.0958,-3.0984,-3.0944,-3.094,-3.0982,-3.0894,-3.0882,-3.0882,-3.0872,-3.0839,-3.083,-3.0788,-3.0826,-3.0829,-3.0875,-3.0772,-3.0924,-3.0932,-3.0938,-3.1044,-3.1061,-3.1075,0,0,0,0,0,-3.0957,-3.1017,-3.0985,-3.0986,-3.0972,-3.0985,-3.0983,-3.0932,-3.0886,-3.0914,-3.0884,-3.0831,-3.087,-3.083,-3.0833,-3.0881,-3.0921,-3.093,-3.0937,-3.1037,-3.1058,-3.1075,0,0,0,0,0,0,-3.1063,-3.1011,-3.0975,-3.1023,-3.101,-3.0967,-3.0999,-3.0955,-3.0954,-3.0944,-3.0882,-3.0876,-3.0923,-3.0906,-3.0863,-3.0954,-3.0887,-3.0897,-3.0962,-3.0981,-3.0997,-3.1,-3.0773,0,0,0,0,0,-3.1092,-3.1106,-3.106,-3.1107,-3.1102,-3.1053,-3.1056,-3.1018,-3.1002,-3.0996,-3.0968,-3.0956,-3.0965,-3.0973,-3.0978,-3.1042,-3.1035,-3.1077,-3.1092,-3.1105,-3.1114,-3.1149,-3.1168,-3.0968,-3.0968,-3.0968,0,0,-3.1152,-3.1125,-3.1137,-3.1128,-3.1113,-3.113,-3.1048,-3.1069,-3.1082,-3.0999,-3.1033,-3.1014,-3.0996,-3.1048,-3.1069,-3.1035,-3.1168,-3.1116,-3.1127,-3.1127,-3.1159,-3.1178,-3.1195,-3.0974,-3.0973,-3.0972,0,0,-3.127,-3.1251,-3.1289,-3.1276,-3.1254,-3.1222,-3.1232,-3.1197,-3.1181,-3.1214,-3.1153,-3.117,-3.1186,-3.1177,-3.1174,-3.1296,-3.1248,-3.13,-3.1381,-3.1416,-3.1432,-3.1445,-3.149,-3.1506,-3.1308,-3.1308,-3.1309,0,-3.1347,-3.1369,-3.1314,-3.1341,-3.134,-3.1266,-3.1306,-3.1297,-3.1279,-3.1281,-3.1243,-3.1266,-3.1248,-3.1298,-3.1329,-3.1329,-3.134,-3.1302,-3.1434,-3.1447,-3.1459,-3.1501,-3.1517,-3.1315,-3.1314,-3.1313,-3.1313,0,-3.1467,-3.1484,-3.1518,-3.1503,-3.1506,-3.1539,-3.1492,-3.1502,-3.1466,-3.1438,-3.1476,-3.1453,-3.1455,-3.1464,-3.1429,-3.1511,-3.1491,-3.1445,-3.1376,-3.1485,-3.1523,-3.1539,-3.1324,-3.1322,-3.132,-3.1318,0,0,-3.1646,-3.1603,-3.1616,-3.161,-3.1583,-3.1596,-3.1629,-3.163,-3.1641,-3.1633,-3.166,-3.1678,-3.1637,-3.1634,-3.1598,-3.1629,-3.1729,-3.1579,-3.1578,-3.1608,-3.1821,-3.1856,-3.1875,-3.1698,-3.1701,-3.1703,-3.1823,0,-3.1757,-3.1807,-3.1761,-3.1821,-3.1838,-3.1771,-3.1799,-3.1788,-3.1765,-3.1777,-3.1752,-3.1767,-3.171,-3.1708,-3.1736,-3.1711,-3.1771,-3.1702,-3.1724,-3.1726,-3.173,-3.1894,-3.193,-3.2043,-3.1837,-3.184,-3.1842,0,-3.1892,-3.1891,-3.1952,-3.1925,-3.1931,-3.1957,-3.1956,-3.1969,-3.1956,-3.1937,-3.1938,-3.1894,-3.1926,-3.1862,-3.1907,-3.1862,-3.1869,-3.1859,-3.1862,-3.1861,-3.1789,-3.1899,-3.2078,-3.2095,-3.1864,-3.1863,-3.1861,0,-3.2018,-3.2032,-3.2071,-3.2068,-3.2037,-3.2057,-3.2046,-3.203,-3.2035,-3.2036,-3.2039,-3.2045,-3.2047,-3.2054,-3.2014,-3.1971,-3.2066,-3.1997,-3.2053,-3.2054,-3.2074,-3.2073,-3.2258,-3.208,-3.208,-3.208,-3.2079,0,-3.2146,-3.2187,-3.2127,-3.2152,-3.2197,-3.2146,-3.2192,-3.2174,-3.2162,-3.2183,-3.2127,-3.2149,-3.2095,-3.2113,-3.2082,-3.2126,-3.2128,-3.2115,-3.2106,-3.212,-3.2122,-3.2123,-3.2114,-3.2084,-3.2083,-3.2082,-3.2082,0,-3.2293,-3.2254,-3.2293,-3.2262,-3.2256,-3.2291,-3.2265,-3.2288,-3.2262,-3.2291,-3.2295,-3.2256,-3.2274,-3.2235,-3.2248,-3.2228,-3.2291,-3.2269,-3.2294,-3.2288,-3.2346,-3.2341,-3.2537,-3.2561,-3.2369,-3.2371,-3.2372,0,-3.2377,-3.2406,-3.238,-3.239,-3.2381,-3.2398,-3.2404,-3.2357,-3.2366,-3.2356,-3.2381,-3.2394,-3.2402,-3.2435,-3.2409,-3.242,-3.2399,-3.2467,-3.24,-3.2413,-3.2401,-3.2399,-3.2403,-3.248,-3.2482,-3.2484,-3.2486,0,-3.253,-3.2511,-3.252,-3.2525,-3.2533,-3.2535,-3.2532,-3.2544,-3.2495,-3.2508,-3.2525,-3.2532,-3.2547,-3.2562,-3.2567,-3.2557,-3.2515,-3.2508,-3.2521,-3.2535,-3.2548,-3.2543,-3.2332,-3.2503,-3.2501,-3.25,-3.2499,-3.2498,-3.2648,-3.2673,-3.2659,-3.2672,-3.2666,-3.2666,-3.2687,-3.2665,-3.2679,-3.2686,-3.2659,-3.2684,-3.2675,-3.2677,-3.2673,-3.2694,-3.2663,-3.2683,-3.2688,-3.2693,-3.2703,-3.2546,-3.2695,-3.2694,-3.2694,-3.2693,-3.2693,0,-3.2799,-3.2788,-3.2801,-3.28,-3.2812,-3.2771,-3.2768,-3.2781,-3.2803,-3.2798,-3.2808,-3.2831,-3.2847,-3.2824,-3.2836,-3.2857,-3.2838,-3.2862,-3.286,-3.2859,-3.2729,-3.2716,-3.2878,-3.2878,-3.2878,-3.2878,-3.2877,-3.2877,-3.2879,-3.2919,-3.29,-3.2938,-3.2927,-3.295,-3.2952,-3.2953,-3.2949,-3.2977,-3.2989,-3.2974,-3.2963,-3.2975,-3.2989,-3.2982,-3.299,-3.3021,-3.3008,-3.2886,-3.2868,-3.285,-3.2838,-3.3023,-3.3023,-3.3136,-3.3137,-3.3138]},{"header":{"parameterUnit":"m.s-1","parameterCategory":1,"la1":30.2991,"la2":30.254,"lo1":-89.0895,"lo2":-89.0444,"dy":0.0017,"dx":0.0017,"nx":28,"ny":28,"refTime":"2023-08-21T03:00:00:Z","depth":0,"parameterNumber":3,"parameterNumberName":"V-component_of_WINDS"},"data":[0,0,0,0,0,0,0,0,0,0,0,0,0,0,0,0,0,0,0,0,0,0,0,0,0,0,0,0,0,0,0,0,0,0,0,0,0,0,0,0,0,0,0,0,0,0,0,0,0,0,0,0,0,0,0,0,0,0,3.7426,3.7426,0,3.7428,3.7428,3.7428,3.7463,3.7464,3.7465,3.7465,3.7462,3.7461,3.746,0,0,0,0,0,0,0,0,0,0,0,0,0,3.7447,3.7446,3.7426,3.7426,3.7426,3.7428,3.7428,3.7428,3.7463,3.7464,3.7465,3.7466,3.7462,3.7461,3.746,0,0,0,0,0,0,0,0,0,0,0,0,0,3.7442,3.7446,3.7426,3.7444,3.7445,3.7428,3.7428,3.7428,3.7462,3.7464,3.7465,3.7466,3.7462,3.7461,3.7459,3.7424,0,0,3.7455,3.7455,0,0,0,0,0,0,0,0,3.7442,3.7441,3.7441,3.7442,3.7444,3.7447,3.7434,3.7427,3.7462,3.7456,3.7465,3.7467,3.7455,3.7454,3.7452,3.7424,3.7424,3.7455,3.7454,3.7454,3.7453,0,0,0,0,0,0,0,3.7443,3.7441,3.7427,3.7441,3.7443,3.745,3.7451,3.7433,3.7448,3.7456,3.7459,3.7459,3.7456,3.7453,3.7452,3.7424,3.7455,3.7454,3.7453,3.7452,3.7367,3.7366,0,0,0,0,0,0,3.7441,3.7441,3.7427,3.7427,3.7447,3.7448,3.7449,3.7444,3.7448,3.745,3.7458,3.7461,3.7455,3.7453,3.7452,3.741,3.7454,3.7452,3.7452,3.7368,3.7367,3.7365,0,0,0,0,0,0,3.7442,3.744,3.7427,3.7435,3.7434,3.7447,3.7441,3.7444,3.7441,3.7449,3.7451,3.7452,3.7456,3.7454,3.7431,3.7411,3.7452,3.745,3.737,3.7368,3.7366,3.7327,0,0,0,0,0,0,3.7442,3.744,3.7427,3.7434,3.7433,3.7407,3.744,3.7443,3.7439,3.7442,3.7444,3.7446,3.7457,3.7433,3.743,3.7409,3.7449,3.7372,3.7369,3.7366,3.733,3.7323,3.7318,0,0,0,0,0,3.7443,3.7415,3.7426,3.7424,3.7418,3.7406,3.7405,3.7419,3.7437,3.7424,3.743,3.7446,3.7414,3.743,3.7427,3.7406,3.7373,3.737,3.7367,3.7332,3.7325,3.7318,0,0,0,0,0,0,3.7402,3.7416,3.7429,3.7403,3.7403,3.7412,3.7395,3.7411,3.7404,3.7408,3.7425,3.7425,3.7399,3.7401,3.7419,3.7372,3.7396,3.7392,3.7372,3.7364,3.7358,3.7358,3.7448,0,0,0,0,0,3.7391,3.7381,3.7393,3.7368,3.7368,3.7382,3.7377,3.7389,3.7389,3.7388,3.7392,3.739,3.738,3.7373,3.7364,3.7331,3.7331,3.7315,3.7309,3.7304,3.73,3.7282,3.7275,3.7354,3.7354,3.7355,0,0,3.7365,3.7372,3.7364,3.7361,3.7362,3.735,3.7382,3.7367,3.7358,3.7386,3.7365,3.7368,3.7367,3.7339,3.7327,3.7339,3.7278,3.73,3.7296,3.7294,3.7278,3.7271,3.7264,3.7352,3.7353,3.7353,0,0,3.7314,3.7318,3.7298,3.73,3.7303,3.7313,3.7308,3.7315,3.7319,3.7299,3.7319,3.7308,3.729,3.7288,3.7285,3.7235,3.7249,3.7232,3.72,3.7183,3.7176,3.7171,3.7152,3.7145,3.7228,3.7228,3.7227,0,3.7281,3.7266,3.7286,3.7271,3.7268,3.7295,3.7275,3.7275,3.7274,3.727,3.7285,3.7264,3.7265,3.7237,3.7225,3.7222,3.7216,3.723,3.7176,3.7171,3.7166,3.7148,3.7141,3.7225,3.7226,3.7226,3.7226,0,3.7226,3.7215,3.7198,3.7199,3.7195,3.7177,3.7193,3.7186,3.7199,3.7206,3.7185,3.7188,3.718,3.7175,3.7186,3.7149,3.7157,3.7174,3.7198,3.7156,3.7139,3.7132,3.7222,3.7223,3.7224,3.7224,0,0,3.7146,3.716,3.7153,3.7154,3.716,3.7151,3.7135,3.7129,3.7123,3.7122,3.7107,3.7092,3.7109,3.7105,3.7117,3.7102,3.7061,3.7121,3.7121,3.7108,3.7019,3.7004,3.6996,3.7072,3.7071,3.707,3.7018,0,3.7095,3.7069,3.7087,3.7057,3.7046,3.7073,3.7059,3.706,3.7067,3.7058,3.7066,3.7055,3.7078,3.7076,3.7063,3.7069,3.7043,3.7073,3.7056,3.7055,3.7053,3.6988,3.6972,3.6924,3.7012,3.7011,3.701,0,3.7031,3.703,3.6999,3.7009,3.7005,3.6992,3.6988,3.698,3.6983,3.6989,3.6986,3.7002,3.6985,3.7011,3.6988,3.7008,3.7002,3.7004,3.7003,3.7,3.7028,3.6981,3.6909,3.6901,3.7,3.7001,3.7002,0,3.6974,3.6965,3.6945,3.6945,3.6956,3.6946,3.695,3.6954,3.6949,3.6946,3.6944,3.6938,3.6934,3.6929,3.6942,3.696,3.6916,3.6944,3.6919,3.6918,3.6906,3.6906,3.683,3.6906,3.6906,3.6906,3.6906,0,3.6914,3.6894,3.692,3.6908,3.6886,3.6907,3.6884,3.6891,3.6894,3.6883,3.6905,3.6894,3.6913,3.6903,3.6914,3.6892,3.689,3.6893,3.6896,3.689,3.6889,3.6885,3.6888,3.6904,3.6905,3.6905,3.6905,0,3.6846,3.6863,3.6843,3.6856,3.6859,3.6842,3.6852,3.684,3.685,3.6835,3.6833,3.6848,3.6837,3.6851,3.6841,3.6848,3.6818,3.6827,3.6817,3.6819,3.6793,3.6795,3.6709,3.6698,3.6783,3.6783,3.6782,0,3.6805,3.6791,3.6803,3.6798,3.6801,3.6792,3.6789,3.6809,3.6804,3.6807,3.6794,3.6787,3.6781,3.6763,3.6771,3.6764,3.6772,3.6742,3.677,3.6765,3.6769,3.6769,3.6767,3.6735,3.6734,3.6734,3.6733,0,3.6732,3.6741,3.6736,3.6734,3.673,3.6729,3.6729,3.6723,3.6745,3.6738,3.6729,3.6725,3.6716,3.6707,3.6703,3.6705,3.6722,3.6725,3.6718,3.6711,3.6706,3.6707,3.68,3.6726,3.6727,3.6727,3.6727,3.6728,3.6675,3.6663,3.667,3.6663,3.6667,3.6667,3.6657,3.6667,3.666,3.6656,3.6668,3.6656,3.6659,3.6655,3.6656,3.6645,3.6658,3.6649,3.6646,3.6643,3.6638,3.671,3.6645,3.6645,3.6645,3.6645,3.6646,0,3.6601,3.6607,3.6601,3.6602,3.6597,3.6617,3.6618,3.6612,3.6602,3.6604,3.6599,3.6588,3.658,3.659,3.6583,3.6573,3.658,3.657,3.657,3.657,3.6628,3.6634,3.6564,3.6564,3.6564,3.6564,3.6565,3.6565,3.6561,3.6542,3.6553,3.6536,3.6542,3.6531,3.6531,3.6531,3.6533,3.652,3.6515,3.6522,3.6527,3.6521,3.6514,3.6517,3.6513,3.6499,3.6505,3.6558,3.6566,3.6573,3.6579,3.6499,3.6499,3.6447,3.6447,3.6446]}]]